Flag for U.S.A. Weather past 2 weeks in Syracuse, New York, U.S.A.

58 °F

Broken clouds.

Feels Like: 56 °F
Forecast: 50 / 64 °F
Wind: 8 mph from Southwest

Location: Syracuse Hancock International Airport

Current Time: Oct 6, 2015 at 11:47:10 AM

Latest Report: Oct 6, 2015 at 10:54 AM

Visibility: 10 mi

Pressure: 30.09 "Hg

Humidity: 75%

Dew point: 50 °F

Location of SyracuseLocation

Historic Weather in Syracuse — Graph


Syracuse temperature yesterday

Maximum temperature yesterday: 65 °F (at 2:54 PM)
Minimum temperature yesterday: 41 °F (at 6:54 AM)
Average temperature yesterday: 53 °F

Past Weeks' High & Low Weather Summary

High76 °F (Sep 22, 3:54 PM)100% (Sep 29, 9:02 PM)30.45 "Hg (Sep 29, 9:02 PM)
Low39 °F (Oct 3, 5:54 AM)26% (Sep 22, 3:54 PM)29.81 "Hg (Sep 30, 5:54 AM)
Average58 °F73%30.23 "Hg
* Reported Sep 21 10:54 AM — Oct 6 10:54 AM, Syracuse, Weather by CustomWeather, © 2015

Note: Actual official high and low records may vary slightly from our data, if they occured in-between our weather recording intervals... More about our weather records


Syracuse weather history for previous 24 hours

Time TempWeatherWind HumidityBarometerVisibility
10:54 AM
Tue, Oct 6
58 °FBroken clouds.8 mph75%30.09 "Hg10 mi
9:54 AM56 °FPartly sunny.6 mph75%30.10 "Hg10 mi
8:54 AM54 °FPartly sunny.5 mph77%30.10 "Hg10 mi
7:54 AM53 °FPassing clouds.6 mph83%30.09 "Hg10 mi
6:54 AM54 °FOvercast.5 mph83%30.08 "Hg10 mi
5:54 AM54 °FOvercast.3 mph83%30.07 "Hg10 mi
4:54 AM54 °FOvercast.5 mph80%30.07 "Hg10 mi
3:54 AM54 °FOvercast.3 mph80%30.08 "Hg10 mi
2:54 AM55 °FOvercast.3 mph77%30.09 "Hg10 mi
1:54 AM56 °FOvercast.5 mph77%30.09 "Hg10 mi
12:54 AM56 °FMostly cloudy.No wind75%30.10 "Hg10 mi
11:54 PM
Mon, Oct 5
56 °FMostly cloudy.3 mph77%30.10 "Hg10 mi
10:54 PM56 °FOvercast.No wind72%30.11 "Hg10 mi
9:54 PM56 °FMostly cloudy.No wind75%30.11 "Hg10 mi
8:54 PM57 °FMostly cloudy.No wind67%30.12 "Hg10 mi
7:54 PM58 °FPassing clouds.5 mph62%30.13 "Hg10 mi
6:54 PM60 °FPartly sunny.No wind56%30.11 "Hg10 mi
5:54 PM62 °FBroken clouds.6 mph46%30.12 "Hg10 mi
4:54 PM63 °FBroken clouds.9 mph45%30.12 "Hg10 mi
3:54 PM65 °FScattered clouds.8 mph42%30.13 "Hg10 mi
2:54 PM65 °FScattered clouds.No wind37%30.14 "Hg10 mi
1:54 PM64 °FPartly sunny.7 mph37%30.16 "Hg10 mi
12:54 PM61 °FPartly sunny.7 mph50%30.19 "Hg10 mi
11:54 AM59 °FBroken clouds.7 mph58%30.22 "Hg10 mi
Weather by CustomWeather, © 2015

See weather overviewHow to use our weather pages